When you browse on this site, cookies collect data to enhance your experience and personalize the content and advertising you see.
Visit our Privacy Policy to learn more. By continuing to use the site, you agree to this use of cookies and data.
  • In Spain
  • List of Countries
  • For 7 days
  • Water Temperature
  • Satellite Maps
  • Weather Map
  • Weather Widgets
  • user-avatar
    Login

    Hourly Weather Escaldes-Engordany

    Today, 20 January, Sunday

    Time Temperature Precipitation Wind Pressure Humidity
    00:00 -1°C° 0 mm 1 mps 630 mmHg 80%
    01:00 -1°C° 0.2 mm 1 mps 630 mmHg 84%
    02:00 -1°C° 0.2 mm 1 mps 629 mmHg 87%
    03:00 -1°C° 0.2 mm 1 mps 629 mmHg 90%
    04:00 -1°C° 0.1 mm 1 mps 630 mmHg 89%
    05:00 -1°C° 0.1 mm 1 mps 630 mmHg 87%
    06:00 -1°C° 0.1 mm 1 mps 630 mmHg 85%
    07:00 0°C° 0.1 mm 1 mps 630 mmHg 80%
    08:00 -1°C° 0.1 mm 2 mps 631 mmHg 75%
    09:00 -1°C° 0.1 mm 2 mps 631 mmHg 69%
    10:00 +1°C° 0 mm 2 mps 632 mmHg 64%
    11:00 +2°C° 0 mm 2 mps 632 mmHg 58%
    12:00 +3°C° 0 mm 2 mps 632 mmHg 53%
    13:00 +2°C° 0 mm 2 mps 632 mmHg 55%
    14:00 +2°C° 0 mm 2 mps 632 mmHg 58%
    15:00 +2°C° 0 mm 2 mps 632 mmHg 60%
    16:00 -1°C° 0 mm 2 mps 632 mmHg 69%
    17:00 -2°C° 0 mm 2 mps 632 mmHg 78%
    18:00 -4°C° 0 mm 2 mps 632 mmHg 87%
    19:00 -3°C° 0.1 mm 2 mps 632 mmHg 87%
    20:00 -3°C° 0.1 mm 2 mps 633 mmHg 87%
    21:00 -3°C° 0.1 mm 2 mps 633 mmHg 87%
    22:00 -3°C° 0 mm 2 mps 633 mmHg 87%
    23:00 -3°C° 0 mm 2 mps 634 mmHg 87%

    Tomorrow, 21 January, Monday

    Time Temperature Precipitation Wind Pressure Humidity
    00:00 -3°C° 0 mm 2 mps 634 mmHg 87%
    01:00 -4°C° 0.1 mm 2 mps 634 mmHg 87%
    02:00 -4°C° 0.1 mm 2 mps 634 mmHg 87%
    03:00 -4°C° 0.1 mm 2 mps 634 mmHg 87%
    04:00 -4°C° 0.1 mm 2 mps 634 mmHg 87%
    05:00 -4°C° 0.1 mm 2 mps 634 mmHg 87%
    06:00 -4°C° 0.1 mm 2 mps 634 mmHg 87%
    07:00 -4°C° 0.2 mm 2 mps 635 mmHg 84%
    08:00 -4°C° 0.2 mm 3 mps 635 mmHg 80%
    09:00 -4°C° 0.2 mm 3 mps 636 mmHg 77%
    10:00 -2°C° 0.1 mm 3 mps 636 mmHg 73%
    11:00 -2°C° 0.1 mm 3 mps 636 mmHg 68%
    12:00 -1°C° 0.1 mm 3 mps 636 mmHg 64%
    13:00 -1°C° 0 mm 3 mps 636 mmHg 64%
    14:00 -1°C° 0 mm 3 mps 636 mmHg 65%
    15:00 -2°C° 0 mm 3 mps 636 mmHg 65%
    16:00 -4°C° 0 mm 3 mps 636 mmHg 71%
    17:00 -5°C° 0 mm 3 mps 635 mmHg 78%
    18:00 -6°C° 0 mm 2 mps 635 mmHg 84%
    19:00 -6°C° 0 mm 2 mps 635 mmHg 84%
    20:00 -6°C° 0 mm 2 mps 635 mmHg 85%
    21:00 -7°C° 0 mm 2 mps 635 mmHg 85%
    22:00 -7°C° 0 mm 2 mps 635 mmHg 84%
    23:00 -7°C° 0 mm 2 mps 635 mmHg 83%

    Day after tomorrow, 22 January, Tuesday

    Time Temperature Precipitation Wind Pressure Humidity
    00:00 -8°C° 0 mm 2 mps 634 mmHg 82%
    01:00 -8°C° 0 mm 2 mps 634 mmHg 76%
    02:00 -8°C° 0 mm 2 mps 634 mmHg 70%
    03:00 -8°C° 0 mm 2 mps 633 mmHg 63%
    04:00 -9°C° 0 mm 2 mps 633 mmHg 60%
    05:00 -9°C° 0 mm 2 mps 632 mmHg 56%
    06:00 -9°C° 0 mm 2 mps 632 mmHg 52%
    07:00 -7°C° 0 mm 2 mps 632 mmHg 49%
    08:00 -3°C° 0 mm 1 mps 632 mmHg 46%
    09:00 -2°C° 0 mm 1 mps 633 mmHg 43%
    10:00 0°C° 0 mm 1 mps 632 mmHg 40%
    11:00 +1°C° 0 mm 1 mps 632 mmHg 38%
    12:00 +3°C° 0 mm 1 mps 631 mmHg 36%
    13:00 +2°C° 0.4 mm 1 mps 630 mmHg 49%
    14:00 0°C° 0.4 mm 1 mps 629 mmHg 62%
    15:00 -1°C° 0.4 mm 1 mps 628 mmHg 74%
    16:00 -1°C° 0.5 mm 1 mps 627 mmHg 78%
    17:00 -3°C° 0.5 mm 2 mps 627 mmHg 83%
    18:00 -4°C° 0.5 mm 2 mps 626 mmHg 87%
    19:00 -4°C° 0.6 mm 2 mps 626 mmHg 87%
    20:00 -6°C° 0.6 mm 3 mps 626 mmHg 87%
    21:00 -6°C° 0.6 mm 3 mps 626 mmHg 87%
    22:00 -7°C° 1 mm 3 mps 626 mmHg 88%
    23:00 -7°C° 1 mm 3 mps 625 mmHg 89%

    23 January, Wednesday

    Time Temperature Precipitation Wind Pressure Humidity
    00:00 -8°C° 1 mm 3 mps 625 mmHg 90%
    01:00 -9°C° 0.8 mm 4 mps 624 mmHg 90%
    02:00 -10°C° 0.8 mm 4 mps 624 mmHg 89%
    03:00 -11°C° 0.8 mm 4 mps 624 mmHg 89%
    04:00 -12°C° 0.4 mm 5 mps 623 mmHg 89%
    05:00 -12°C° 0.4 mm 5 mps 623 mmHg 88%
    06:00 -12°C° 0.4 mm 6 mps 623 mmHg 88%
    07:00 -12°C° 0.3 mm 6 mps 623 mmHg 86%
    08:00 -12°C° 0.3 mm 6 mps 624 mmHg 84%
    09:00 -12°C° 0.3 mm 6 mps 624 mmHg 82%
    10:00 -13°C° 0.3 mm 7 mps 624 mmHg 81%
    11:00 -12°C° 0.3 mm 7 mps 624 mmHg 80%
    12:00 -12°C° 0.3 mm 7 mps 624 mmHg 78%
    13:00 -12°C° 0.4 mm 7 mps 624 mmHg 79%
    14:00 -12°C° 0.4 mm 7 mps 624 mmHg 80%
    15:00 -12°C° 0.4 mm 8 mps 624 mmHg 81%
    16:00 -13°C° 0.3 mm 8 mps 624 mmHg 82%
    17:00 -13°C° 0.3 mm 8 mps 624 mmHg 83%
    18:00 -13°C° 0.3 mm 8 mps 624 mmHg 84%
    19:00 -13°C° 0.3 mm 8 mps 625 mmHg 85%
    20:00 -13°C° 0.3 mm 7 mps 625 mmHg 85%
    21:00 -14°C° 0.3 mm 7 mps 626 mmHg 85%
    22:00 -14°C° 0.1 mm 7 mps 626 mmHg 85%
    23:00 -14°C° 0.1 mm 7 mps 626 mmHg 84%

    24 January, Thursday

    Time Temperature Precipitation Wind Pressure Humidity
    00:00 -14°C° 0.1 mm 7 mps 626 mmHg 84%
    01:00 -14°C° 0 mm 6 mps 626 mmHg 84%
    02:00 -14°C° 0 mm 6 mps 626 mmHg 83%
    03:00 -13°C° 0 mm 5 mps 626 mmHg 83%
    04:00 -14°C° 0 mm 5 mps 627 mmHg 83%
    05:00 -14°C° 0 mm 5 mps 627 mmHg 83%
    06:00 -14°C° 0 mm 5 mps 627 mmHg 83%
    07:00 -13°C° 0 mm 5 mps 628 mmHg 80%
    08:00 -13°C° 0 mm 5 mps 629 mmHg 78%
    09:00 -12°C° 0 mm 5 mps 629 mmHg 75%
    10:00 -11°C° 0 mm 5 mps 630 mmHg 73%
    11:00 -10°C° 0 mm 5 mps 630 mmHg 70%
    12:00 -8°C° 0 mm 5 mps 630 mmHg 68%
    13:00 -8°C° 0 mm 4 mps 630 mmHg 67%
    14:00 -8°C° 0 mm 4 mps 630 mmHg 65%
    15:00 -8°C° 0 mm 4 mps 629 mmHg 64%
    16:00 -10°C° 0 mm 4 mps 629 mmHg 68%
    17:00 -12°C° 0 mm 3 mps 628 mmHg 71%
    18:00 -15°C° 0 mm 3 mps 628 mmHg 75%
    19:00 -14°C° 0.1 mm 3 mps 628 mmHg 78%
    20:00 -13°C° 0.1 mm 3 mps 629 mmHg 80%
    21:00 -12°C° 0.1 mm 3 mps 629 mmHg 83%
    22:00 -10°C° 0.3 mm 3 mps 630 mmHg 84%
    23:00 -8°C° 0.3 mm 3 mps 630 mmHg 84%

    25 January, Friday

    Time Temperature Precipitation Wind Pressure Humidity
    00:00 -7°C° 0.3 mm 3 mps 630 mmHg 85%
    01:00 -7°C° 0.3 mm 3 mps 630 mmHg 85%
    02:00 -7°C° 0.3 mm 4 mps 630 mmHg 86%
    03:00 -7°C° 0.3 mm 4 mps 630 mmHg 86%
    04:00 -7°C° 0.2 mm 4 mps 631 mmHg 86%
    05:00 -7°C° 0.2 mm 5 mps 631 mmHg 86%
    06:00 -8°C° 0.2 mm 5 mps 631 mmHg 86%
    07:00 -8°C° 0.1 mm 5 mps 632 mmHg 83%
    08:00 -7°C° 0.1 mm 5 mps 632 mmHg 81%
    09:00 -7°C° 0.1 mm 5 mps 633 mmHg 79%
    10:00 -7°C° 0 mm 5 mps 633 mmHg 77%
    11:00 -6°C° 0 mm 5 mps 634 mmHg 75%
    12:00 -6°C° 0 mm 5 mps 634 mmHg 73%
    13:00 -6°C° 0 mm 5 mps 634 mmHg 73%
    14:00 -6°C° 0 mm 5 mps 634 mmHg 73%
    15:00 -6°C° 0 mm 5 mps 634 mmHg 73%
    16:00 -8°C° 0 mm 4 mps 634 mmHg 76%
    17:00 -9°C° 0 mm 4 mps 634 mmHg 79%
    18:00 -11°C° 0 mm 4 mps 634 mmHg 82%
    19:00 -11°C° 0 mm 4 mps 634 mmHg 81%
    20:00 -12°C° 0 mm 4 mps 635 mmHg 81%
    21:00 -12°C° 0 mm 3 mps 635 mmHg 80%
    22:00 -12°C° 0 mm 3 mps 635 mmHg 77%
    23:00 -12°C° 0 mm 3 mps 635 mmHg 75%
    Show more